www.pogodaiklimat.ru
ПОГОДА в Спадедэме
Время
(UTC), дата
07 30.11
08 30.11
09 30.11
10 30.11
11 30.11
12 30.11
13 30.11
14 30.11
15 30.11
16 30.11
17 30.11
18 30.11
19 30.11
20 30.11
21 30.11
22 30.11
23 30.11
00 1.12
01 1.12
02 1.12
03 1.12
04 1.12
05 1.12
06 1.12
07 1.12
08 1.12
09 1.12
10 1.12
11 1.12
12 1.12
13 1.12
14 1.12
15 1.12
16 1.12
17 1.12
18 1.12
19 1.12
20 1.12
21 1.12
22 1.12
23 1.12
00 2.12
01 2.12
02 2.12
03 2.12
04 2.12
05 2.12
06 2.12
07 2.12
08 2.12
09 2.12
10 2.12
11 2.12
12 2.12
13 2.12
14 2.12
15 2.12
16 2.12
17 2.12
18 2.12
19 2.12
20 2.12
21 2.12
22 2.12
23 2.12
00 3.12
01 3.12
02 3.12
03 3.12
04 3.12
05 3.12
06 3.12
07 3.12
08 3.12
09 3.12
10 3.12
11 3.12
12 3.12
13 3.12
14 3.12
15 3.12
16 3.12
17 3.12
18 3.12
19 3.12
20 3.12
21 3.12
22 3.12
23 3.12
00 4.12
01 4.12
02 4.12
03 4.12
04 4.12
05 4.12
06 4.12
07 4.12
08 4.12
09 4.12
10 4.12
11 4.12
12 4.12
13 4.12
14 4.12
15 4.12
16 4.12
17 4.12
18 4.12
19 4.12
20 4.12
21 4.12
22 4.12
23 4.12
00 5.12
01 5.12
02 5.12
03 5.12
04 5.12
05 5.12
06 5.12
07 5.12
08 5.12
09 5.12
10 5.12
11 5.12
12 5.12
13 5.12
14 5.12
15 5.12
16 5.12
17 5.12
18 5.12
19 5.12
20 5.12
21 5.12
22 5.12
23 5.12
00 6.12
01 6.12
02 6.12
03 6.12
04 6.12
05 6.12
06 6.12
07 6.12
08 6.12
09 6.12
10 6.12
11 6.12
12 6.12
13 6.12
14 6.12
15 6.12
16 6.12
17 6.12
18 6.12
19 6.12
20 6.12
21 6.12
22 6.12
23 6.12
00 7.12
01 7.12
02 7.12
03 7.12
04 7.12
05 7.12
Ветер
(напр.,м/с)
Видим. Явления Облачность Т
(С)
Тd
(С)
f
(%)
Тe
(С)
Тes
(С)
Комфортность P
(гПа)
Po
(гПа)
Тmin
(С)
Tmax
(С)
R
(мм)
R24
(мм)
S
(см)
СВ 2 45 км н/о -2.5 -2.9 97 -7 -7 холодно 1023.7 987.6
СВ 1 50 км н/о -2.4 -2.7 98 -5 -5 холодно 1024.4 988.2
В 3 45 км н/о -1.3 -1.6 98 -6 -6 холодно 1024.4 988.4
В 4 30 км н/о -1.2 -1.6 97 -7 -7 холодно 1024.9 988.8
В 3 24 км н/о +0.7 +0.3 97 -4 -4 прохладно 1024.8 989.0
В 3 35 км н/о +1.9 +1.0 94 -3 -3 прохладно 1024.6 989.0 0.2
В 3 30 км н/о +1.7 +0.9 94 -2 -2 по сезону 1024.9 989.2
В 3 28 км дым н/о +2.2 +0.9 91 -2 -2 по сезону 1024.4 988.8
В 3 40 км в посл. час туман н/о +1.2 +0.4 94 -3 -3 прохладно 1024.3 988.6 70.9
В 2 13 км в посл. час туман н/о -0.5 -1.0 96 -4 -4 прохладно 1024.8 988.9
СВ 2 14 км н/о -0.1 -0.3 99 -3 -3 прохладно 1024.9 989.1
В 3 4400 м дымка н/о -1.0 -1.2 99 -6 -6 холодно 1025.3 989.3 +3.0 0.2
СВ 2 18 км н/о -0.9 -1.1 99 -5 -5 холодно 1025.5 989.5
В 3 26 км н/о -1.0 -1.2 99 -6 -6 холодно 1025.5 989.5
СВ 2 19 км н/о -2.2 -2.5 98 -6 -6 холодно 1026.2 990.0
С 2 700 м туман н/о -2.2 -2.5 98 -6 -6 холодно 1026.4 990.2
С 2 35 км в посл. час туман н/о -1.6 -1.7 99 -6 -6 холодно 1026.4 990.3
СВ 2 9000 м дымка н/о -0.8 -1.0 99 -4 -4 прохладно 1026.1 990.1
С 1 40 км н/о -1.3 -1.6 98 -4 -4 прохладно 1026.0 990.0
С 2 50 км н/о -1.5 -1.8 98 -6 -6 холодно 1026.1 990.0
С 2 50 км н/о -1.0 -1.2 99 -5 -5 холодно 1026.0 990.0
Ю 2 17 км н/о -1.5 -1.7 99 -5 -5 холодно 1026.0 989.9
СЗ 1 300 м туман н/о -2.1 -2.3 99 -5 -5 холодно 1026.1 989.9
З 1 25 км в посл. час туман н/о -3.5 -3.7 99 -6 -6 холодно 1026.8 990.4 -4.0 0.2
ЮЗ 1 300 м туман н/о -4.0 -4.3 98 -7 -7 холодно 1027.1 990.6
СЗ 2 600 м туман н/о -3.7 -4.0 98 -7 -7 холодно 1027.3 990.9
З 2 2400 м в посл. час туман н/о -3.2 -3.4 99 -7 -7 холодно 1027.7 991.3
З 2 1200 м в посл. час туман н/о -1.6 -1.7 99 -5 -5 холодно 1027.7 991.5
З 2 200 м туман н/о -1.3 -1.4 99 -5 -5 холодно 1028.0 991.9
ЮЗ 2 100 м туман н/о -0.7 -0.8 99 -5 -5 холодно 1027.7 991.7 75.3
З 2 30 км в посл. час снег н/о +0.6 +0.4 99 -3 -3 прохладно 1028.0 992.1
ЮЗ 3 2000 м в посл. час туман н/о -0.2 -0.7 96 -5 -5 холодно 1028.3 992.3
СЗ 3 50 км в посл. час туман н/о -0.5 -1.3 94 -5 -5 холодно 1028.6 992.6 71.8
З 2 50 км н/о -1.7 -3.1 90 -5 -5 холодно 1029.3 993.1
З 3 35 км н/о -2.9 -3.3 97 -8 -8 очень
холодно
1029.6 993.2
З 3 25 км н/о -3.7 -4.2 96 -9 -9 очень
холодно
1030.3 993.8 +1.0 0.0
ЮЗ 3 4700 м дымка н/о -3.9 -4.4 96 -10 -10 очень
холодно
1030.8 994.2
ЮЗ 4 200 м переохл. туман н/о -3.7 -3.8 99 -10 -10 очень
холодно
1030.8 994.2
З 3 200 м переохл. туман н/о -3.3 -3.5 99 -9 -9 очень
холодно
1030.7 994.2
З 4 2200 м в посл. час туман н/о -3.2 -3.3 99 -9 -9 очень
холодно
1030.6 994.2
З 5 7000 м дымка н/о -3.1 -3.3 99 -10 -10 очень
холодно
1030.7 994.2
З 5 9000 м дымка н/о -3.6 -4.0 97 -10 -10 очень
холодно
1031.3 994.7
З 5 13 км н/о -3.4 -3.8 97 -11 -11 очень
холодно
1030.9 994.4
З 5 11 км н/о -3.2 -3.5 98 -10 -10 очень
холодно
1030.8 994.4
З 5 10 км дымка н/о -2.6 -2.9 98 -10 -10 очень
холодно
1030.7 994.3
З 4 10 км н/о -1.8 -2.1 98 -8 -8 очень
холодно
1030.3 994.1
З 5 10 км н/о -1.4 -1.7 98 -8 -8 очень
холодно
1030.6 994.4
З 4 6000 м дымка н/о -0.8 -1.0 99 -7 -7 холодно 1030.3 994.2 -4.2
З 4 7000 м дымка н/о -0.3 -0.3 100 -6 -6 холодно 1030.1 994.0
З 3 5000 м дымка н/о -0.1 -0.2 99 -5 -5 холодно 1030.2 994.2
З 3 2100 м дымка н/о +0.3 +0.2 99 -5 -5 холодно 1030.5 994.5
ЮЗ 4 1400 м в посл. час туман н/о +0.2 +0.1 99 -6 -6 холодно 1030.5 994.5
З 3 400 м туман н/о +0.6 +0.6 100 -4 -4 прохладно 1030.7 994.8
З 3 100 м туман н/о +1.6 +1.6 100 -3 -3 прохладно 1030.4 994.6 0.2 78.0
ЮЗ 2 100 м слаб. ливневой дождь н/о +2.1 +2.1 100 -2 -2 по сезону 1029.9 994.2
З 3 100 м туман н/о +2.9 +2.9 100 -1 -1 по сезону 1029.1 993.5
З 5 100 м осадки н/о +3.0 +3.0 100 -3 -3 прохладно 1028.8 993.2
З 5 100 м осадки н/о +3.2 +3.2 100 -2 -2 по сезону 1028.6 993.0
З 5 100 м осадки н/о +3.2 +3.2 100 -2 -2 по сезону 1028.2 992.7
З 7 100 м слаб. морось н/о +3.5 +3.5 100 -3 -3 прохладно 1028.1 992.6 +3.7 0.2 78.0
З 6 200 м жидкие осадки н/о +3.8 +3.8 100 -2 -2 по сезону 1028.1 992.6
З 6 400 м дождь н/о +4.0 +4.0 100 -2 -2 по сезону 1027.9 992.5
З 6 200 м слаб. дождь н/о +4.1 +4.1 100 -2 -2 по сезону 1027.7 992.3
З 9 1500 м слаб. дождь н/о +4.1 +4.1 100 -3 -3 прохладно 1027.0 991.6
З 10
{15}
5000 м н/о +4.2 +4.2 100 -3 -3 прохладно 1026.6 991.2
З 11
{15}
5000 м дымка н/о +4.2 +4.2 100 -3 -3 прохладно 1026.3 990.9 2
З 8
{16}
3000 м дымка н/о +4.2 +4.2 100 -2 -2 по сезону 1026.4 991.0
З 9
{13}
4700 м дымка н/о +4.2 +4.2 100 -2 -2 по сезону 1026.0 990.6
З 10
{14}
1900 м дымка н/о +4.0 +4.0 100 -3 -3 прохладно 1025.3 989.9
З 9
{15}
1600 м в посл. час туман н/о +3.9 +3.9 100 -3 -3 прохладно 1024.9 989.5
З 8
{13}
9000 м н/о +3.7 +3.7 100 -3 -3 прохладно 1024.8 989.4
З 7
{13}
11 км н/о +3.5 +3.5 100 -3 -3 прохладно 1024.6 989.2 +3.4 2 2.6
З 10
{13}
17 км н/о +3.4 +2.8 96 -4 -4 прохладно 1024.1 988.7
З 8 12 км н/о +3.1 +2.6 97 -4 -4 прохладно 1024.1 988.7
З 10
{14}
15 км н/о +3.1 +2.6 97 -4 -4 прохладно 1023.9 988.5
З 10
{15}
12 км н/о +3.2 +2.8 97 -4 -4 прохладно 1023.9 988.5
З 9
{14}
8000 м дымка н/о +3.8 +3.5 98 -3 -3 прохладно 1023.7 988.4
З 9
{13}
15 км н/о +4.3 +3.7 96 -2 -2 по сезону 1022.8 987.6
З 10
{14}
30 км н/о +4.6 +3.2 91 -2 -2 по сезону 1022.1 986.9
З 11
{15}
22 км н/о +4.5 +3.0 90 -2 -2 по сезону 1021.2 986.1
З 11
{15}
18 км н/о +4.5 +3.3 92 -3 -3 прохладно 1020.8 985.6
З 8
{13}
11 км н/о +3.9 +3.3 96 -3 -3 прохладно 1020.7 985.5
З 8 14 км н/о +4.6 +3.8 95 -2 -2 по сезону 1020.5 985.4
З 7 11 км н/о +3.5 +3.0 97 -3 -3 прохладно 1020.7 985.4 +5.1
ЮЗ 6 23 км н/о +3.2 +2.2 93 -3 -3 прохладно 1020.3 985.0
ЮЗ 6 16 км н/о +2.8 +2.0 94 -3 -3 прохладно 1020.1 984.8
З 6 8000 м дымка н/о +2.6 +2.2 97 -3 -3 прохладно 1019.7 984.4
З 8 12 км н/о +3.3 +2.8 97 -3 -3 прохладно 1019.4 984.2
ЮЗ 6 14 км н/о +3.6 +2.7 94 -2 -2 по сезону 1018.8 983.7
ЮЗ 6 17 км н/о +4.1 +3.0 93 -2 -2 по сезону 1017.9 982.8
ЮЗ 6 17 км н/о +5.0 +3.7 91 -0 -0 по сезону 1017.4 982.4
Ю 4 15 км н/о +5.0 +4.0 93 +1 +1 по сезону 1017.1 982.2
Ю 3 11 км н/о +5.1 +4.0 93 +1 +1 по сезону 1016.3 981.4
ЮЗ 4 8000 м дымка н/о +4.5 +3.7 95 -0 -0 по сезону 1015.5 980.6
ЮЗ 3 6000 м дымка н/о +3.7 +3.3 97 -0 -0 по сезону 1015.3 980.2
ЮЗ 6 11 км н/о +4.4 +3.3 93 -1 -1 по сезону 1014.8 979.8 +2.3
ЮЗ 8 10 км н/о +4.8 +3.6 92 -1 -1 по сезону 1014.6 979.7
ЮЗ 8 18 км н/о +5.2 +3.8 91 -1 -1 по сезону 1014.4 979.6
ЮЗ 7 17 км в посл. час дождь н/о +5.2 +3.7 90 -0 -0 по сезону 1014.5 979.7
ЮЗ 8 22 км н/о +5.1 +3.8 91 -1 -1 по сезону 1014.3 979.5
ЮЗ 7 22 км н/о +5.6 +3.8 88 0 0 по сезону 1014.2 979.4
ЮЗ 7 22 км н/о +5.9 +4.3 89 +1 +1 по сезону 1013.5 978.8 0.0
ЮЗ 8 4100 м в посл. час морось н/о +5.6 +4.7 94 -0 -0 по сезону 1013.2 978.4
ЮЗ 8-14
{14}
3600 м ливневой дождь н/о +5.7 +5.5 99 -0 -0 по сезону 1013.1 978.4
ЮЗ 8
{13}
500 м слаб. дождь н/о +5.9 +5.9 100 0 0 по сезону 1013.5 978.8
ЮЗ 7 300 м морось н/о +6.2 +6.2 100 +1 +1 по сезону 1013.8 979.1
З 8
{14}
3400 м морось н/о +6.5 +6.5 100 +1 +1 по сезону 1013.9 979.3
З 8
{13}
3800 м в посл. час дождь н/о +6.2 +6.2 100 0 0 по сезону 1014.0 979.3 +6.6 2
З 6 5000 м дымка н/о +5.3 +5.3 100 0 0 по сезону 1014.7 979.8
ЮЗ 6 8000 м дымка н/о +4.3 +4.3 100 -1 -1 по сезону 1014.7 979.7
ЮЗ 7 8000 м дымка н/о +4.7 +4.7 100 -1 -1 по сезону 1014.6 979.7
ЮЗ 9 12 км н/о +4.5 +4.2 98 -2 -2 по сезону 1014.3 979.4
ЮЗ 7
{13}
11 км н/о +4.4 +3.9 97 -1 -1 по сезону 1014.8 979.8
ЮЗ 6 12 км н/о +4.8 +4.1 95 -0 -0 по сезону 1014.6 979.7
ЮЗ 9
{16}
10 км в посл. час дождь н/о +4.9 +4.7 99 -2 -2 по сезону 1013.6 978.7
ЮЗ 9
{15}
11 км в посл. час морось н/о +5.1 +4.7 97 -1 -1 по сезону 1013.4 978.6
З 8
{14}
10 км дымка н/о +4.6 +4.2 97 -2 -2 по сезону 1013.4 978.5
З 7 13 км н/о +4.0 +3.6 97 -2 -2 по сезону 1013.2 978.2
ЮЗ 10 14 км в посл. час дождь н/о +4.9 +4.2 95 -2 -2 по сезону 1012.6 977.8
ЮЗ 11
{15}
15 км в посл. час дождь н/о +5.0 +4.2 95 -2 -2 по сезону 1012.0 977.2 +3.9 0.8 2.8
ЮЗ 12
{16}
26 км в посл. час дождь н/о +5.2 +3.8 91 -2 -2 по сезону 1011.2 976.5
ЮЗ 12
{17}
17 км в посл. час дождь н/о +5.5 +4.0 90 -1 -1 по сезону 1010.9 976.2
ЮЗ 13-18
{19}
5000 м слаб. морось н/о +5.3 +4.6 95 -2 -2 по сезону 1010.6 975.9
ЮЗ 10
{16}
20 км в посл. час морось н/о +5.8 +4.5 91 -1 -1 по сезону 1010.2 975.6
ЮЗ 11
{16}
29 км н/о +6.2 +4.4 88 -0 -0 по сезону 1008.9 974.4
ЮЗ 10
{17}
30 км н/о +6.4 +4.2 86 0 0 по сезону 1006.8 972.4 0.0
ЮЗ 10
{16}
7000 м слаб. морось н/о +5.9 +5.1 95 -1 -1 по сезону 1004.8 970.4
ЮЗ 10
{15}
6000 м дождь н/о +6.4 +6.0 97 0 0 по сезону 1003.2 968.9
ЮЗ 9
{13}
5000 м дождь н/о +7.0 +6.9 99 +1 +1 по сезону 1001.5 967.3
ЮЗ 10-15
{15}
2700 м дождь н/о +8.1 +8.0 99 +3 +3 по сезону 999.6 965.6
ЮЗ 15-21
{21}
3900 м слаб. морось с дождем н/о +8.8 +8.8 100 +3 +3 по сезону 998.1 964.3
ЮЗ 16-22
{23}
2400 м дождь н/о +9.4 +9.2 99 +3 +3 по сезону 996.9 963.2 +9.4 12
ЮЗ 17-24
{27}
3700 м дождь н/о +9.6 +9.5 99 +3 +3 по сезону 997.1 963.4
ЮЗ 16-23
{25}
5000 м слаб. дождь н/о +9.7 +9.6 99 +4 +4 по сезону 997.4 963.7
З 16-22
{24}
2400 м сильн. морось н/о +9.7 +9.6 99 +4 +4 по сезону 997.5 963.8
З 15-23
{23}
4200 м слаб. морось н/о +9.7 +9.6 99 +4 +4 по сезону 997.8 964.1
З 13-19
{21}
6000 м слаб. морось н/о +9.7 +9.6 99 +4 +4 по сезону 997.7 964.0
З 14-20
{20}
1300 м слаб. дождь н/о +9.7 +9.7 100 +4 +4 по сезону 998.2 964.4 7
З 13-19
{20}
1800 м слаб. морось н/о +9.7 +9.7 100 +4 +4 по сезону 997.8 964.1
З 12-21
{21}
1000 м в посл. час дождь н/о +9.7 +9.7 100 +4 +4 по сезону 997.1 963.4
З 12
{19}
5000 м в посл. час туман н/о +9.7 +9.7 100 +4 +4 по сезону 996.7 963.0 70.9
З 12
{18}
400 м туман н/о +9.7 +9.7 100 +4 +4 по сезону 996.4 962.7
ЮЗ 10
{17}
300 м морось н/о +9.6 +9.6 100 +5 +5 тепло 996.0 962.3
ЮЗ 10
{15}
200 м морось н/о +9.6 +9.6 100 +5 +5 тепло 995.3 961.6 +9.4 8 20.0
ЮЗ 10
{13}
200 м морось н/о +9.5 +9.5 100 +5 +5 тепло 994.3 960.7
ЮЗ 10
{14}
3600 м сильн. дождь н/о +9.4 +9.4 100 +4 +4 по сезону 993.8 960.2
З 12
{17}
2100 м слаб. морось с дождем н/о +9.2 +9.2 100 +4 +4 по сезону 993.9 960.3 70.9
ЮЗ 12-19
{19}
6000 м слаб. морось н/о +8.8 +8.8 100 +3 +3 по сезону 993.2 959.5
З 11
{19}
9000 м в посл. час дождь н/о +7.8 +7.8 100 +2 +2 по сезону 993.6 959.8
З 11
{17}
9000 м в посл. час морось н/о +7.5 +7.4 99 +1 +1 по сезону 993.8 959.9 4
З 11-16
{16}
6000 м морось н/о +7.3 +7.2 99 +1 +1 по сезону 993.7 959.8
З 9
{15}
800 м туман н/о +7.3 +7.3 100 +2 +2 по сезону 994.0 960.1
З 8
{13}
3100 м в посл. час дождь н/о +7.1 +7.1 100 +2 +2 по сезону 994.5 960.5
З 9
{13}
7000 м дымка н/о +6.9 +6.9 100 +1 +1 по сезону 995.2 961.3
З 9
{14}
11 км н/о +6.4 +6.3 99 +1 +1 по сезону 996.8 962.7
З 8 19 км н/о +6.1 +6.0 99 0 0 по сезону 998.2 964.1 +9.6 6
З 9 14 км н/о +6.0 +5.9 99 0 0 по сезону 999.4 965.2
З 9 14 км в посл. час морось н/о +6.3 +6.2 99 0 0 по сезону 1000.5 966.2
З 9 8000 м дымка н/о +6.1 +6.0 99 0 0 по сезону 1001.0 966.7
З 10
{13}
10 км дымка н/о +6.0 +6.0 100 -0 -0 по сезону 1001.6 967.3
З 7 12 км н/о +5.7 +5.7 100 0 0 по сезону 1002.5 968.1
З 7 300 м туман н/о +5.5 +5.5 100 0 0 по сезону 1003.5 969.1 0.0
З 8 200 м туман н/о +5.9 +5.9 100 0 0 по сезону 1004.0 969.6
З 8 200 м туман н/о +6.2 +6.2 100 +1 +1 по сезону 1004.5 970.1
З 7 200 м туман н/о +6.3 +6.3 100 +1 +1 по сезону 1004.6 970.3
З 8 300 м туман н/о +6.1 +6.1 100 0 0 по сезону 1005.3 970.9
З 8 100 м туман н/о +6.1 +6.1 100 0 0 по сезону 1005.9 971.5
Местоположение метеостанции Спадедэм (Великобритания): широта 55.05 долгота -2.55 высота над уровнем моря 286 м.
В архиве по умолчанию представлена погода в Спадедэме за последнюю неделю. Архивные данные за месяц целиком и за предыдущие месяцы, начиная с января 2011 года, Вы можете получить, выбрав интересующий диапазон дат из раскрывающегося списка и нажав кнопку "Найти!".
*Определитесь, кто Вы:
Внимание! Время в таблицах - всемирное. Для получения местного времени необходимо прибавить поправку, которая равна 0 ч.
Смотрите также архив погоды в соседних городах и на ближайших метеорологических станциях:
Партнеры нашего сайта:      
Пояснения к столбцам:
  • Ветер - указаны скорость ветра в м/с - средняя за 10 мин, порывы в срок и между сроками (в фигурных скобках) и направление, откуда дует ветер: С - северный,
  • СВ - северо-восточный, В - восточный, ЮВ - юго-восточный, Ю - южный, ЮЗ - юго-западный, З - западный, СЗ - северо-западный.
  • Видимость - горизонтальная дальность видимости в метрах или километрах. При видимости от 1 до 10 км при отсутствии осадков обычно наблюдается дымка, при ухудшении видимости до 1 км и менее - туман. В сухую погоду видимость может ухудшаться дымом, пылью или мглою.
  • Явления - указаны атмосферные явления, наблюдавшиеся в срок или в последний час перед сроком; фигурными скобками обозначены явления, наблюдавшиеся между сроками (за 1-3 часа до срока); квадратными скобками обозначены град или гололедные отложения с указанием их диаметра в мм.
  • Облачность - указаны через наклонную черту общая и нижняя облачность в баллах и высота нижней границы облаков в метрах; квадратными скобками обозначены формы облаков: Ci - перистые, Cs - перисто-слоистые, Cc - перисто-кучевые, Ac - высококучевые, As - высокослоистые, Sc - слоисто-кучевые, Ns - слоисто-дождевые, Cu - кучевые, Cb - кучево-дождевые. Подробнее классификацию облаков см. в Атласе облаков (PDF).
  • T - Температура воздуха - температура, измеренная на высоте 2 м над землей.
  • Td - Температура точки росы - температура, при понижении до которой содержащийся в воздухе водяной пар достигнет насыщения.
  • f - Относительная влажность воздуха - влажноcть воздуха, измеренная на высоте 2 м над землей.
  • Te - Эффективная температура - температура, которую ощущает одетый по сезону человек в тени. Характеристика душности погоды. При расчете учитывается влияние влажности воздуха и скорости ветра на теплоощущения человека.
  • Tes - Эффективная температура на солнце - температура, которую ощущает человек, с поправкой на солнечный нагрев. Характеристика знойности погоды. Зависит от высоты солнца над горизонтом, облачности и скорости ветра. Ночью, в пасмурную погоду, а также при ветре 12 м/с и более поправка равна нулю.
  • P - Атмосферное давление - приведенное к уровню моря атмосферное давление.
  • Po - Атмосферное давление - измеренное на уровне метеостанции атмосферное давление.
  • Tmin - Минимальная температура - минимум температуры воздуха на высоте 2 м над землей.
  • Tmax - Максимальная температура - максимум температуры воздуха на высоте 2 м над землей.
  • R - Количество осадков - Количество выпавших осадков за период времени, мм. При наведении курсора мыши на число - период времени, за который выпало указанное количество осадков.
  • R24 - Количество осадков - Количество выпавших осадков за 24 часа, мм.
  • S - Снежный покров - Высота снежного покрова, см. При наведении курсора мыши на число - состояние снежного покрова и степень покрытия местности в баллах.